When you browse on this site, cookies collect data to enhance your experience and personalize the content and advertising you see.
Visit our Privacy Policy to learn more. By continuing to use the site, you agree to this use of cookies and data.
  • En España
  • Lista de países
  • Para 7 días
  • Temperatura del agua
  • El tiempo en el mapa
  • Informadores
  • user-avatar
    Iniciar sesión

    Tiempo cada hora Zaleschiki

    Hoy, 7 Junio, Domingo

    Tiempo Temperatura Precipitaciones Viento Presión Humedad
    00:00 +17°C° 0 mm 2 mps 732 mmHg 98%
    01:00 +17°C° 0 mm 2 mps 732 mmHg 98%
    02:00 +16°C° 0 mm 2 mps 732 mmHg 98%
    03:00 +16°C° 0 mm 2 mps 732 mmHg 99%
    04:00 +16°C° 0 mm 2 mps 732 mmHg 100%
    05:00 +16°C° 0 mm 1 mps 732 mmHg 100%
    06:00 +16°C° 0 mm 1 mps 732 mmHg 100%
    07:00 +18°C° 0 mm 1 mps 732 mmHg 100%
    08:00 +18°C° 0 mm 2 mps 732 mmHg 98%
    09:00 +19°C° 0 mm 3 mps 732 mmHg 97%
    10:00 +20°C° 0 mm 3 mps 733 mmHg 97%
    11:00 +22°C° 0 mm 3 mps 733 mmHg 95%
    12:00 +25°C° 0 mm 4 mps 733 mmHg 86%
    13:00 +26°C° 0 mm 5 mps 733 mmHg 80%
    14:00 +27°C° 0 mm 5 mps 733 mmHg 82%
    15:00 +27°C° 0 mm 6 mps 733 mmHg 82%
    16:00 +26°C° 0 mm 5 mps 732 mmHg 80%
    17:00 +26°C° 0 mm 5 mps 732 mmHg 83%
    18:00 +25°C° 0 mm 5 mps 732 mmHg 85%
    19:00 +23°C° 0 mm 4 mps 732 mmHg 86%
    20:00 +22°C° 0 mm 3 mps 732 mmHg 92%
    21:00 +21°C° 0 mm 3 mps 732 mmHg 96%
    22:00 +20°C° 0 mm 3 mps 732 mmHg 98%
    23:00 +20°C° 0 mm 3 mps 733 mmHg 98%

    Mañana, 8 Junio, Lunes

    Tiempo Temperatura Precipitaciones Viento Presión Humedad
    00:00 +19°C° 0 mm 3 mps 733 mmHg 99%
    01:00 +19°C° 0 mm 3 mps 733 mmHg 99%
    02:00 +19°C° 0 mm 3 mps 733 mmHg 96%
    03:00 +18°C° 0 mm 3 mps 732 mmHg 97%
    04:00 +17°C° 0 mm 2 mps 732 mmHg 98%
    05:00 +17°C° 0 mm 2 mps 732 mmHg 100%
    06:00 +17°C° 0 mm 2 mps 732 mmHg 99%
    07:00 +18°C° 0 mm 2 mps 732 mmHg 98%
    08:00 +19°C° 0 mm 2 mps 732 mmHg 99%
    09:00 +19°C° 0 mm 2 mps 733 mmHg 99%
    10:00 +20°C° 0 mm 3 mps 733 mmHg 97%
    11:00 +21°C° 0 mm 4 mps 733 mmHg 95%
    12:00 +23°C° 0 mm 4 mps 733 mmHg 92%
    13:00 +23°C° 0 mm 4 mps 732 mmHg 90%
    14:00 +23°C° 0 mm 4 mps 732 mmHg 88%
    15:00 +25°C° 0 mm 5 mps 731 mmHg 88%
    16:00 +25°C° 0 mm 5 mps 731 mmHg 88%
    17:00 +25°C° 0 mm 5 mps 731 mmHg 86%
    18:00 +23°C° 0 mm 5 mps 731 mmHg 89%
    19:00 +23°C° 0 mm 5 mps 731 mmHg 94%
    20:00 +21°C° 0 mm 5 mps 731 mmHg 96%
    21:00 +21°C° 0 mm 4 mps 731 mmHg 98%
    22:00 +20°C° 0 mm 4 mps 731 mmHg 99%
    23:00 +20°C° 0 mm 3 mps 731 mmHg 100%

    Pasado mañana, 9 Junio, Martes

    Tiempo Temperatura Precipitaciones Viento Presión Humedad
    00:00 +20°C° 0 mm 4 mps 731 mmHg 100%
    01:00 +19°C° 0 mm 3 mps 731 mmHg 100%
    02:00 +19°C° 0 mm 3 mps 731 mmHg 100%
    03:00 +19°C° 0 mm 4 mps 731 mmHg 100%
    04:00 +19°C° 0 mm 4 mps 731 mmHg 100%
    05:00 +18°C° 0 mm 3 mps 731 mmHg 100%
    06:00 +19°C° 0 mm 3 mps 731 mmHg 100%
    07:00 +19°C° 0 mm 3 mps 731 mmHg 99%
    08:00 +19°C° 0 mm 2 mps 732 mmHg 98%
    09:00 +20°C° 0 mm 3 mps 732 mmHg 97%
    10:00 +21°C° 0 mm 3 mps 732 mmHg 97%
    11:00 +21°C° 0 mm 4 mps 732 mmHg 96%
    12:00 +22°C° 0 mm 4 mps 732 mmHg 97%
    13:00 +22°C° 0 mm 4 mps 732 mmHg 95%
    14:00 +23°C° 0 mm 4 mps 732 mmHg 91%
    15:00 +23°C° 0 mm 4 mps 732 mmHg 87%
    16:00 +24°C° 0 mm 3 mps 732 mmHg 88%
    17:00 +24°C° 0 mm 3 mps 732 mmHg 86%
    18:00 +24°C° 0 mm 3 mps 731 mmHg 86%
    19:00 +24°C° 0 mm 3 mps 731 mmHg 91%
    20:00 +23°C° 0 mm 2 mps 731 mmHg 95%
    21:00 +21°C° 0 mm 2 mps 731 mmHg 98%
    22:00 +20°C° 0 mm 3 mps 732 mmHg 99%
    23:00 +20°C° 0 mm 2 mps 732 mmHg 100%

    10 Junio, Miércoles

    Tiempo Temperatura Precipitaciones Viento Presión Humedad
    00:00 +19°C° 0 mm 2 mps 732 mmHg 100%
    01:00 +18°C° 0 mm 2 mps 731 mmHg 100%
    02:00 +18°C° 0 mm 2 mps 731 mmHg 100%
    03:00 +17°C° 0 mm 2 mps 731 mmHg 100%
    04:00 +17°C° 0 mm 2 mps 731 mmHg 100%
    05:00 +17°C° 0 mm 2 mps 731 mmHg 100%
    06:00 +18°C° 0 mm 2 mps 731 mmHg 100%
    07:00 +18°C° 0 mm 2 mps 731 mmHg 99%
    08:00 +19°C° 0 mm 3 mps 731 mmHg 97%
    09:00 +20°C° 0 mm 4 mps 731 mmHg 97%
    10:00 +21°C° 0 mm 4 mps 732 mmHg 97%
    11:00 +21°C° 0 mm 4 mps 732 mmHg 97%
    12:00 +22°C° 0 mm 4 mps 732 mmHg 95%
    13:00 +23°C° 0 mm 4 mps 731 mmHg 95%
    14:00 +23°C° 0 mm 4 mps 731 mmHg 94%
    15:00 +23°C° 0 mm 4 mps 731 mmHg 92%
    16:00 +25°C° 0 mm 4 mps 730 mmHg 90%
    17:00 +25°C° 0 mm 4 mps 730 mmHg 89%
    18:00 +25°C° 0 mm 3 mps 730 mmHg 90%
    19:00 +23°C° 0 mm 4 mps 730 mmHg 92%
    20:00 +22°C° 0 mm 3 mps 730 mmHg 95%
    21:00 +21°C° 0 mm 3 mps 730 mmHg 98%
    22:00 +21°C° 0 mm 3 mps 730 mmHg 98%
    23:00 +20°C° 0 mm 3 mps 730 mmHg 99%

    11 Junio, Jueves

    Tiempo Temperatura Precipitaciones Viento Presión Humedad
    00:00 +20°C° 0 mm 3 mps 730 mmHg 100%
    01:00 +20°C° 0 mm 3 mps 730 mmHg 100%
    02:00 +20°C° 0 mm 3 mps 730 mmHg 100%
    03:00 +19°C° 0 mm 3 mps 730 mmHg 100%
    04:00 +19°C° 0 mm 3 mps 730 mmHg 100%
    05:00 +19°C° 0 mm 3 mps 730 mmHg 100%
    06:00 +19°C° 0 mm 3 mps 730 mmHg 100%
    07:00 +19°C° 0 mm 2 mps 730 mmHg 100%
    08:00 +20°C° 0 mm 3 mps 730 mmHg 99%
    09:00 +20°C° 0 mm 3 mps 731 mmHg 98%
    10:00 +20°C° 0 mm 3 mps 731 mmHg 97%
    11:00 +21°C° 0 mm 4 mps 731 mmHg 97%
    12:00 +22°C° 0 mm 5 mps 731 mmHg 95%
    13:00 +23°C° 0 mm 5 mps 730 mmHg 94%
    14:00 +23°C° 0 mm 5 mps 730 mmHg 94%
    15:00 +23°C° 0 mm 5 mps 730 mmHg 93%
    16:00 +23°C° 0 mm 4 mps 730 mmHg 90%
    17:00 +23°C° 0 mm 5 mps 730 mmHg 92%
    18:00 +23°C° 0 mm 4 mps 730 mmHg 93%
    19:00 +22°C° 0 mm 4 mps 730 mmHg 94%
    20:00 +22°C° 0 mm 3 mps 730 mmHg 95%
    21:00 +21°C° 0 mm 3 mps 730 mmHg 98%
    22:00 +20°C° 0 mm 3 mps 730 mmHg 99%
    23:00 +20°C° 0 mm 3 mps 730 mmHg 100%

    12 Junio, Viernes

    Tiempo Temperatura Precipitaciones Viento Presión Humedad
    00:00 +20°C° 0 mm 2 mps 730 mmHg 100%
    01:00 +21°C° 0 mm 1 mps 730 mmHg 100%
    02:00 +21°C° 0 mm 1 mps 730 mmHg 100%
    03:00 +19°C° 0 mm 0 mps 729 mmHg 100%
    04:00 +21°C° 0 mm 1 mps 729 mmHg 100%
    05:00 +21°C° 0 mm 1 mps 729 mmHg 100%
    06:00 +21°C° 0 mm 1 mps 729 mmHg 100%
    07:00 +20°C° 0 mm 2 mps 730 mmHg 100%
    08:00 +21°C° 0 mm 1 mps 730 mmHg 99%
    09:00 +21°C° 0 mm 1 mps 730 mmHg 98%
    10:00 +22°C° 0 mm 1 mps 730 mmHg 97%
    11:00 +23°C° 0 mm 1 mps 730 mmHg 96%
    12:00 +25°C° 0 mm 2 mps 730 mmHg 93%
    13:00 +25°C° 0 mm 3 mps 729 mmHg 88%
    14:00 +26°C° 0 mm 3 mps 729 mmHg 88%
    15:00 +26°C° 0 mm 4 mps 728 mmHg 87%
    16:00 +27°C° 0 mm 5 mps 728 mmHg 86%
    17:00 +26°C° 0 mm 4 mps 728 mmHg 88%
    18:00 +26°C° 0 mm 4 mps 728 mmHg 92%
    19:00 +25°C° 0 mm 3 mps 728 mmHg 93%
    20:00 +24°C° 0 mm 3 mps 728 mmHg 96%
    21:00 +20°C° 0.6 mm 5 mps 728 mmHg 98%
    22:00 +20°C° 5.8 mm 7 mps 729 mmHg 98%
    23:00 +19°C° 5.8 mm 6 mps 729 mmHg 99%
    Mostrar más